Find Starlink 3375

NORAD ID: 51114 Int'l Des: 2022-005 Owner: SPXS Country: US Constellation: starlink operational
LEOCIRCULAR

实时位置

正在加载3D地球...

关于 Starlink 3375

正在加载描述...

即将过境

Passes for default location (London). Set your location on the main map for personalized predictions.

高度历史

Loading altitude history...

两行轨道根数

1 51114U 22005L 26126.46774251 .00000120 00000-0 25612-4 0 9997
2 51114 53.2190 29.7417 0001299 102.3703 257.7434 15.08844690237606
Epoch: May 6, 2026 • Age: 13 hours

当前状态

高度 542.5 km
速度 7.59 km/s
星下点 -8.60°S, 157.62°E
发射日期 Jan 19, 2022
运行时间 4.2 years
类型 internet

技术详情

分类 Payload
质量 297.00 kg
干质量 275.00 kg
总质量 297.00 kg
长度 0.20 m
直径 2.80 m
跨度 9.00 m
形状 Box + pan
制造商 SPXS
平台类型 Starlink
阶段状态 In Orbit
所有者/国家 SPXS/US

Most Searched